Location: Kosice
(0.0000°N, 21.2500°E)
Time: 05:56:46
(UTC+01:00)

ARIANE DEB (SYLDA) - Pass Details

Date: 24 January 2021
Orbit: 594 x 35691 km, 6.5° (Epoch: 04 March)

Event Time Altitude Azimuth Distance (km) Brightness Sun altitude
Rises 19:20:45 0° 259° (W) 4,390 7.8 -22.0°
Reaches altitude 10° 19:24:34 10° 251° (WSW) 2,480 6.3 -22.9°
Maximum altitude 19:28:42 37° 180° (S) 941 3.1 -23.9°
Enters shadow 19:29:12 35° 159° (SSE) 967 3.0 -24.0°
